Index of /20260422/WXO-DD/model_gdps/15km/00/207
Name Last modified Size Description
Parent Directory -
20260422T00Z_MSC_GDPS_AirTemp_AGL-120m_LatLon0.15_PT207H.grib2 2026-04-22 04:43 911K
20260422T00Z_MSC_GDPS_AirTemp_AGL-2m_LatLon0.15_PT207H.grib2 2026-04-22 04:43 1.0M
20260422T00Z_MSC_GDPS_AirTemp_AGL-40m_LatLon0.15_PT207H.grib2 2026-04-22 04:43 813K
20260422T00Z_MSC_GDPS_AirTemp_AGL-80m_LatLon0.15_PT207H.grib2 2026-04-22 04:43 802K
20260422T00Z_MSC_GDPS_AirTemp_IsbL-0001_LatLon0.15_PT207H.grib2 2026-04-22 04:43 709K
20260422T00Z_MSC_GDPS_AirTemp_IsbL-0005_LatLon0.15_PT207H.grib2 2026-04-22 04:43 749K
20260422T00Z_MSC_GDPS_AirTemp_IsbL-0500_LatLon0.15_PT207H.grib2 2026-04-22 04:43 1.0M
20260422T00Z_MSC_GDPS_AirTemp_IsbL-0700_LatLon0.15_PT207H.grib2 2026-04-22 04:43 962K
20260422T00Z_MSC_GDPS_AirTemp_IsbL-0850_LatLon0.15_PT207H.grib2 2026-04-22 04:43 1.1M
20260422T00Z_MSC_GDPS_AirTemp_IsbL-0925_LatLon0.15_PT207H.grib2 2026-04-22 04:43 1.1M
20260422T00Z_MSC_GDPS_AirTemp_IsbL-1000_LatLon0.15_PT207H.grib2 2026-04-22 04:43 1.1M
20260422T00Z_MSC_GDPS_Albedo_Sfc_LatLon0.15_PT207H.grib2 2026-04-22 04:43 244K
20260422T00Z_MSC_GDPS_ConvectivePrecip-Accum_Sfc_LatLon0.15_PT207H.grib2 2026-04-22 04:43 3.9M
20260422T00Z_MSC_GDPS_DewPointDepression_AGL-2m_LatLon0.15_PT207H.grib2 2026-04-22 04:43 760K
20260422T00Z_MSC_GDPS_DewPointDepression_IsbL-0500_LatLon0.15_PT207H.grib2 2026-04-22 04:43 1.0M
20260422T00Z_MSC_GDPS_DewPointDepression_IsbL-0700_LatLon0.15_PT207H.grib2 2026-04-22 04:43 1.1M
20260422T00Z_MSC_GDPS_DewPointDepression_IsbL-0850_LatLon0.15_PT207H.grib2 2026-04-22 04:43 1.2M
20260422T00Z_MSC_GDPS_DewPointDepression_IsbL-0925_LatLon0.15_PT207H.grib2 2026-04-22 04:43 1.0M
20260422T00Z_MSC_GDPS_DewPointDepression_IsbL-1000_LatLon0.15_PT207H.grib2 2026-04-22 04:43 1.0M
20260422T00Z_MSC_GDPS_DewPoint_AGL-2m_LatLon0.15_PT207H.grib2 2026-04-22 04:43 612K
20260422T00Z_MSC_GDPS_DownwardLongwaveRadiationFlux-Accum_Sfc_LatLon0.15_PT207H.grib2 2026-04-22 04:43 716K
20260422T00Z_MSC_GDPS_DownwardShortwaveRadiationFlux-Accum_Sfc_LatLon0.15_PT207H.grib2 2026-04-22 04:43 905K
20260422T00Z_MSC_GDPS_FreezingRain-Accum_Sfc_LatLon0.15_PT207H.grib2 2026-04-22 04:43 530K
20260422T00Z_MSC_GDPS_GeopotentialHeight_IsbL-0001_LatLon0.15_PT207H.grib2 2026-04-22 04:43 382K
20260422T00Z_MSC_GDPS_GeopotentialHeight_IsbL-0005_LatLon0.15_PT207H.grib2 2026-04-22 04:43 500K
20260422T00Z_MSC_GDPS_GeopotentialHeight_IsbL-0500_LatLon0.15_PT207H.grib2 2026-04-22 04:43 538K
20260422T00Z_MSC_GDPS_GeopotentialHeight_IsbL-0700_LatLon0.15_PT207H.grib2 2026-04-22 04:43 693K
20260422T00Z_MSC_GDPS_GeopotentialHeight_IsbL-0850_LatLon0.15_PT207H.grib2 2026-04-22 04:43 721K
20260422T00Z_MSC_GDPS_GeopotentialHeight_IsbL-0925_LatLon0.15_PT207H.grib2 2026-04-22 04:43 740K
20260422T00Z_MSC_GDPS_GeopotentialHeight_IsbL-1000_LatLon0.15_PT207H.grib2 2026-04-22 04:43 797K
20260422T00Z_MSC_GDPS_IcePellets-Accum_Sfc_LatLon0.15_PT207H.grib2 2026-04-22 04:43 200K
20260422T00Z_MSC_GDPS_LatentHeatNetFlux_Sfc_LatLon0.15_PT207H.grib2 2026-04-22 04:43 713K
20260422T00Z_MSC_GDPS_NetLongwaveRadiationFlux-Accum_Sfc_LatLon0.15_PT207H.grib2 2026-04-22 04:43 899K
20260422T00Z_MSC_GDPS_NetShortwaveRadiationFlux-Accum_Sfc_LatLon0.15_PT207H.grib2 2026-04-22 04:43 883K
20260422T00Z_MSC_GDPS_O3MixingRatio_LatLon0.15_PT207H.grib2 2026-04-22 05:00 2.2M
20260422T00Z_MSC_GDPS_O3_EAtm_LatLon0.15_PT207H.grib2 2026-04-22 05:00 2.4M
20260422T00Z_MSC_GDPS_PlanetaryBoundaryLayerHeight_Sfc_LatLon0.15_PT207H.grib2 2026-04-22 04:43 2.5M
20260422T00Z_MSC_GDPS_Precip-Accum_Sfc_LatLon0.15_PT207H.grib2 2026-04-22 04:43 5.1M
20260422T00Z_MSC_GDPS_PrecipRate_Sfc_LatLon0.15_PT207H.grib2 2026-04-22 04:43 3.1M
20260422T00Z_MSC_GDPS_Pressure_MSL_LatLon0.15_PT207H.grib2 2026-04-22 04:43 833K
20260422T00Z_MSC_GDPS_Pressure_Sfc_LatLon0.15_PT207H.grib2 2026-04-22 04:43 1.1M
20260422T00Z_MSC_GDPS_RadiativeTemp_Sfc_LatLon0.15_PT207H.grib2 2026-04-22 04:43 493K
20260422T00Z_MSC_GDPS_Rain-Accum_Sfc_LatLon0.15_PT207H.grib2 2026-04-22 04:43 4.3M
20260422T00Z_MSC_GDPS_RelativeHumidity_AGL-2m_LatLon0.15_PT207H.grib2 2026-04-22 04:43 1.1M
20260422T00Z_MSC_GDPS_Runoff-Accum_Sfc_LatLon0.15_PT207H.grib2 2026-04-22 04:43 128K
20260422T00Z_MSC_GDPS_SensibleHeatNetFlux_Sfc_LatLon0.15_PT207H.grib2 2026-04-22 04:43 644K
20260422T00Z_MSC_GDPS_Snow-Accum_Sfc_LatLon0.15_PT207H.grib2 2026-04-22 04:43 2.0M
20260422T00Z_MSC_GDPS_SnowDepth_Sfc_LatLon0.15_PT207H.grib2 2026-04-22 04:43 1.8M
20260422T00Z_MSC_GDPS_SoilTemp_DBS-0to10cm_LatLon0.15_PT207H.grib2 2026-04-22 04:43 513K
20260422T00Z_MSC_GDPS_SoilTemp_Sfc_LatLon0.15_PT207H.grib2 2026-04-22 04:43 586K
20260422T00Z_MSC_GDPS_SoilVolumetricWaterContent_DBS-0to10cm_LatLon0.15_PT207H.grib2 2026-04-22 04:43 583K
20260422T00Z_MSC_GDPS_SoilVolumetricWaterContent_DBS-0to1cm_LatLon0.15_PT207H.grib2 2026-04-22 04:43 654K
20260422T00Z_MSC_GDPS_SpecificHumidity_AGL-120m_LatLon0.15_PT207H.grib2 2026-04-22 04:43 1.1M
20260422T00Z_MSC_GDPS_SpecificHumidity_AGL-2m_LatLon0.15_PT207H.grib2 2026-04-22 04:43 1.2M
20260422T00Z_MSC_GDPS_SpecificHumidity_AGL-40m_LatLon0.15_PT207H.grib2 2026-04-22 04:43 1.1M
20260422T00Z_MSC_GDPS_SpecificHumidity_AGL-80m_LatLon0.15_PT207H.grib2 2026-04-22 04:43 1.1M
20260422T00Z_MSC_GDPS_SpecificHumidity_IsbL-0001_LatLon0.15_PT207H.grib2 2026-04-22 04:43 1.1M
20260422T00Z_MSC_GDPS_SpecificHumidity_IsbL-0005_LatLon0.15_PT207H.grib2 2026-04-22 04:43 1.3M
20260422T00Z_MSC_GDPS_SpecificHumidity_IsbL-0500_LatLon0.15_PT207H.grib2 2026-04-22 04:43 1.4M
20260422T00Z_MSC_GDPS_SpecificHumidity_IsbL-0700_LatLon0.15_PT207H.grib2 2026-04-22 04:43 1.6M
20260422T00Z_MSC_GDPS_SpecificHumidity_IsbL-0850_LatLon0.15_PT207H.grib2 2026-04-22 04:43 1.9M
20260422T00Z_MSC_GDPS_SpecificHumidity_IsbL-0925_LatLon0.15_PT207H.grib2 2026-04-22 04:43 1.6M
20260422T00Z_MSC_GDPS_SpecificHumidity_IsbL-1000_LatLon0.15_PT207H.grib2 2026-04-22 04:43 1.5M
20260422T00Z_MSC_GDPS_SpecificHumidity_Sfc_LatLon0.15_PT207H.grib2 2026-04-22 04:43 675K
20260422T00Z_MSC_GDPS_Thickness_IsbL-0850to0700_LatLon0.15_PT207H.grib2 2026-04-22 04:43 474K
20260422T00Z_MSC_GDPS_Thickness_IsbL-1000to0500_LatLon0.15_PT207H.grib2 2026-04-22 04:43 381K
20260422T00Z_MSC_GDPS_Thickness_IsbL-1000to0850_LatLon0.15_PT207H.grib2 2026-04-22 04:43 497K
20260422T00Z_MSC_GDPS_TotalCloudCover_Sfc_LatLon0.15_PT207H.grib2 2026-04-22 04:43 832K
20260422T00Z_MSC_GDPS_UVIndex-ClearSky_Sfc_LatLon0.15_PT207H.grib2 2026-04-22 05:00 1.0M
20260422T00Z_MSC_GDPS_UVIndex_Sfc_LatLon0.15_PT207H.grib2 2026-04-22 05:00 1.5M
20260422T00Z_MSC_GDPS_UpwardLongwaveRadiationFlux_NTAtm_LatLon0.15_PT207H.grib2 2026-04-22 04:43 842K
20260422T00Z_MSC_GDPS_VerticalVelocity_IsbL-0500_LatLon0.15_PT207H.grib2 2026-04-22 04:43 1.3M
20260422T00Z_MSC_GDPS_VerticalVelocity_IsbL-0700_LatLon0.15_PT207H.grib2 2026-04-22 04:43 1.2M
20260422T00Z_MSC_GDPS_VerticalVelocity_IsbL-0850_LatLon0.15_PT207H.grib2 2026-04-22 04:43 1.4M
20260422T00Z_MSC_GDPS_WindDir_AGL-10m_LatLon0.15_PT207H.grib2 2026-04-22 04:43 1.3M
20260422T00Z_MSC_GDPS_WindDir_AGL-120m_LatLon0.15_PT207H.grib2 2026-04-22 04:43 1.4M
20260422T00Z_MSC_GDPS_WindDir_AGL-40m_LatLon0.15_PT207H.grib2 2026-04-22 04:43 1.4M
20260422T00Z_MSC_GDPS_WindDir_AGL-80m_LatLon0.15_PT207H.grib2 2026-04-22 04:43 1.4M
20260422T00Z_MSC_GDPS_WindDir_IsbL-0001_LatLon0.15_PT207H.grib2 2026-04-22 04:43 672K
20260422T00Z_MSC_GDPS_WindDir_IsbL-0005_LatLon0.15_PT207H.grib2 2026-04-22 04:43 802K
20260422T00Z_MSC_GDPS_WindDir_IsbL-0500_LatLon0.15_PT207H.grib2 2026-04-22 04:43 1.3M
20260422T00Z_MSC_GDPS_WindDir_IsbL-0700_LatLon0.15_PT207H.grib2 2026-04-22 04:43 1.6M
20260422T00Z_MSC_GDPS_WindDir_IsbL-0850_LatLon0.15_PT207H.grib2 2026-04-22 04:43 1.9M
20260422T00Z_MSC_GDPS_WindDir_IsbL-0925_LatLon0.15_PT207H.grib2 2026-04-22 04:43 2.0M
20260422T00Z_MSC_GDPS_WindDir_IsbL-1000_LatLon0.15_PT207H.grib2 2026-04-22 04:43 2.1M
20260422T00Z_MSC_GDPS_WindGust-Max_AGL-10m_LatLon0.15_PT207H.grib2 2026-04-22 04:43 2.2M
20260422T00Z_MSC_GDPS_WindGust-Min_AGL-10m_LatLon0.15_PT207H.grib2 2026-04-22 04:43 2.1M
20260422T00Z_MSC_GDPS_WindGust_AGL-10m_LatLon0.15_PT207H.grib2 2026-04-22 04:43 2.1M
20260422T00Z_MSC_GDPS_WindSpeed_AGL-10m_LatLon0.15_PT207H.grib2 2026-04-22 04:43 1.1M
20260422T00Z_MSC_GDPS_WindSpeed_AGL-120m_LatLon0.15_PT207H.grib2 2026-04-22 04:43 1.3M
20260422T00Z_MSC_GDPS_WindSpeed_AGL-40m_LatLon0.15_PT207H.grib2 2026-04-22 04:43 1.3M
20260422T00Z_MSC_GDPS_WindSpeed_AGL-80m_LatLon0.15_PT207H.grib2 2026-04-22 04:43 1.3M
20260422T00Z_MSC_GDPS_WindSpeed_IsbL-0001_LatLon0.15_PT207H.grib2 2026-04-22 04:43 638K
20260422T00Z_MSC_GDPS_WindSpeed_IsbL-0005_LatLon0.15_PT207H.grib2 2026-04-22 04:43 605K
20260422T00Z_MSC_GDPS_WindSpeed_IsbL-0500_LatLon0.15_PT207H.grib2 2026-04-22 04:43 1.1M
20260422T00Z_MSC_GDPS_WindSpeed_IsbL-0700_LatLon0.15_PT207H.grib2 2026-04-22 04:43 1.5M
20260422T00Z_MSC_GDPS_WindSpeed_IsbL-0850_LatLon0.15_PT207H.grib2 2026-04-22 04:43 1.5M
20260422T00Z_MSC_GDPS_WindSpeed_IsbL-0925_LatLon0.15_PT207H.grib2 2026-04-22 04:43 1.8M
20260422T00Z_MSC_GDPS_WindSpeed_IsbL-1000_LatLon0.15_PT207H.grib2 2026-04-22 04:43 1.9M
20260422T00Z_MSC_GDPS_WindU_AGL-10m_LatLon0.15_PT207H.grib2 2026-04-22 04:43 1.3M
20260422T00Z_MSC_GDPS_WindU_AGL-120m_LatLon0.15_PT207H.grib2 2026-04-22 04:43 1.0M
20260422T00Z_MSC_GDPS_WindU_AGL-40m_LatLon0.15_PT207H.grib2 2026-04-22 04:43 1.0M
20260422T00Z_MSC_GDPS_WindU_AGL-80m_LatLon0.15_PT207H.grib2 2026-04-22 04:43 1.0M
20260422T00Z_MSC_GDPS_WindU_IsbL-0001_LatLon0.15_PT207H.grib2 2026-04-22 04:43 498K
20260422T00Z_MSC_GDPS_WindU_IsbL-0005_LatLon0.15_PT207H.grib2 2026-04-22 04:43 684K
20260422T00Z_MSC_GDPS_WindU_IsbL-0500_LatLon0.15_PT207H.grib2 2026-04-22 04:43 1.1M
20260422T00Z_MSC_GDPS_WindU_IsbL-0700_LatLon0.15_PT207H.grib2 2026-04-22 04:43 1.2M
20260422T00Z_MSC_GDPS_WindU_IsbL-0850_LatLon0.15_PT207H.grib2 2026-04-22 04:43 1.4M
20260422T00Z_MSC_GDPS_WindU_IsbL-0925_LatLon0.15_PT207H.grib2 2026-04-22 04:43 1.5M
20260422T00Z_MSC_GDPS_WindU_IsbL-1000_LatLon0.15_PT207H.grib2 2026-04-22 04:43 1.4M
20260422T00Z_MSC_GDPS_WindV_AGL-10m_LatLon0.15_PT207H.grib2 2026-04-22 04:43 1.6M
20260422T00Z_MSC_GDPS_WindV_AGL-120m_LatLon0.15_PT207H.grib2 2026-04-22 04:43 1.0M
20260422T00Z_MSC_GDPS_WindV_AGL-40m_LatLon0.15_PT207H.grib2 2026-04-22 04:43 1.0M
20260422T00Z_MSC_GDPS_WindV_AGL-80m_LatLon0.15_PT207H.grib2 2026-04-22 04:43 1.0M
20260422T00Z_MSC_GDPS_WindV_IsbL-0001_LatLon0.15_PT207H.grib2 2026-04-22 04:43 773K
20260422T00Z_MSC_GDPS_WindV_IsbL-0005_LatLon0.15_PT207H.grib2 2026-04-22 04:43 757K
20260422T00Z_MSC_GDPS_WindV_IsbL-0500_LatLon0.15_PT207H.grib2 2026-04-22 04:43 1.1M
20260422T00Z_MSC_GDPS_WindV_IsbL-0700_LatLon0.15_PT207H.grib2 2026-04-22 04:43 1.2M
20260422T00Z_MSC_GDPS_WindV_IsbL-0850_LatLon0.15_PT207H.grib2 2026-04-22 04:43 1.4M
20260422T00Z_MSC_GDPS_WindV_IsbL-0925_LatLon0.15_PT207H.grib2 2026-04-22 04:43 1.5M
20260422T00Z_MSC_GDPS_WindV_IsbL-1000_LatLon0.15_PT207H.grib2 2026-04-22 04:43 1.7M